FW0810 Weather Reports


time (UTC)temp
C
wind
direction
speed
KPH
gust
KPH
rain 1hr
cm
rain 24hr
cm
rain mn
cm
humidity
%
barometer
mb
20260510123818 16 327 0.0 1.6 0.13 0.81 0.81 94 1016.1
20260510123311 16 326 0.0 0.0 0.13 0.81 0.81 94 1016.1
20260510122805 16 326 0.0 0.0 0.13 0.79 0.79 94 1016.2
20260510121755 16 326 0.0 0.0 0.13 0.79 0.79 94 1016.3
20260510121247 16 326 0.0 0.0 0.15 0.79 0.79 94 1016.4
20260510120741 16 326 0.0 0.0 0.13 0.76 0.76 94 1016.4
20260510120237 16 327 0.0 0.0 0.15 0.76 0.76 94 1016.6
20260510115729 16 327 0.0 0.0 0.13 0.74 0.74 94 1016.5
20260510115223 16 327 0.0 0.0 0.13 0.74 0.74 94 1016.6
20260510114719 16 326 0.0 0.0 0.13 0.71 0.71 94 1016.7
20260510113705 16 326 0.0 0.0 0.10 0.71 0.71 94 1016.8
20260510113204 16 327 0.0 0.0 0.10 0.71 0.71 94 1016.7
20260510112703 16 326 0.0 0.0 0.10 0.71 0.69 94 1016.7
20260510112204 16 326 0.0 0.0 0.10 0.71 0.69 94 1016.7
20260510110700 16 110 0.0 1.6 0.10 0.66 0.64 94 1016.9
20260510110157 16 110 0.0 0.0 0.08 0.64 0.61 94 1017.0
20260510105659 16 110 0.0 0.0 0.10 0.64 0.61 94 1016.9
20260510104656 16 109 0.0 0.0 0.10 0.61 0.61 94 1016.9
20260510104155 16 109 0.0 0.0 0.13 0.61 0.61 94 1016.9
20260510103656 16 109 0.0 0.0 0.15 0.61 0.61 94 1017.0
20260510103156 16 109 0.0 0.0 0.15 0.61 0.61 94 1017.0
20260510102653 16 109 0.0 0.0 0.13 0.61 0.58 94 1016.9
20260510102149 16 109 0.0 0.0 0.13 0.61 0.58 94 1016.9
20260510101649 15 109 0.0 0.0 0.10 0.58 0.56 94 1017.0
20260510101151 15 109 0.0 0.0 0.10 0.58 0.56 94 1017.1
20260510100649 15 109 0.0 0.0 0.08 0.56 0.53 94 1017.0
20260510095645 15 109 0.0 0.0 0.08 0.53 0.51 94 1017.0
20260510095140 15 112 0.0 0.0 0.05 0.51 0.51 94 1016.9
20260510094639 15 112 0.0 0.0 0.05 0.51 0.51 94 1017.1
20260510094139 15 112 0.0 0.0 0.05 0.51 0.48 93 1016.8
20260510093637 15 112 0.0 0.0 0.03 0.48 0.46 94 1016.9
20260510093135 15 107 0.0 0.0 0.03 0.48 0.46 94 1017.0
20260510092635 15 107 0.0 0.0 0.03 0.48 0.46 94 1016.9
20260510092136 15 107 0.0 0.0 0.03 0.48 0.46 94 1016.8
20260510091635 15 107 0.0 0.0 0.03 0.48 0.46 94 1016.9
20260510091135 15 107 0.0 0.0 0.03 0.48 0.46 94 1017.0
20260510090637 15 107 0.0 1.6 0.03 0.48 0.46 94 1017.0
20260510090133 15 107 0.0 1.6 0.03 0.48 0.46 94 1016.7
20260510085635 15 99 0.0 0.0 0.00 0.46 0.43 94 1016.6
20260510085133 15 99 0.0 0.0 0.00 0.46 0.43 94 1016.6
20260510084633 15 99 0.0 0.0 0.00 0.46 0.43 94 1016.8
20260510084131 15 99 0.0 0.0 0.00 0.46 0.43 94 1016.7
20260510083634 15 99 0.0 0.0 0.00 0.46 0.43 93 1016.7
20260510082629 15 99 0.0 1.6 0.00 0.46 0.43 94 1016.8
20260510082127 15 99 0.0 3.2 0.00 0.46 0.43 93 1016.7
20260510081628 15 99 0.0 3.2 0.00 0.46 0.43 94 1016.7
20260510080625 15 93 0.0 3.2 0.00 0.46 0.43 94 1016.8
20260510080126 15 93 0.0 3.2 0.00 0.46 0.43 94 1016.8
20260510075625 15 104 0.0 0.0 0.00 0.46 0.43 94 1016.8
20260510075124 15 105 0.0 0.0 0.00 0.46 0.43 94 1016.8
20260510074126 15 105 0.0 0.0 0.00 0.46 0.43 94 1016.9
20260510073626 15 105 0.0 3.2 0.00 0.46 0.43 94 1016.9
20260510073121 15 105 0.0 3.2 0.00 0.46 0.43 94 1017.0
20260510072634 15 110 0.0 0.0 0.00 0.46 0.43 94 1016.9
20260510071622 15 110 0.0 0.0 0.00 0.46 0.43 94 1017.0
20260510070625 15 111 0.0 4.8 0.03 0.46 0.43 94 1017.0
20260510070121 15 136 0.0 1.6 0.03 0.46 0.43 93 1017.1
20260510065622 15 136 0.0 1.6 0.05 0.46 0.43 93 1017.0
20260510065119 15 138 0.0 1.6 0.05 0.46 0.43 94 1017.0
20260510064622 15 138 0.0 1.6 0.05 0.46 0.43 94 1017.1
20260510064118 15 139 0.0 0.0 0.08 0.46 0.43 93 1017.0
20260510063622 15 139 0.0 0.0 0.08 0.46 0.43 94 1017.0
20260510063119 14 139 0.0 0.0 0.10 0.46 0.43 93 1017.1
20260510062620 14 139 0.0 0.0 0.13 0.46 0.43 93 1017.2
20260510062119 14 139 0.0 0.0 0.13 0.46 0.43 93 1017.4
20260510061620 14 139 0.0 0.0 0.13 0.46 0.43 93 1017.4
20260510060619 14 139 0.0 0.0 0.10 0.43 0.43 93 1017.2
20260510055620 14 139 0.0 0.0 0.08 0.43 0.41 93 1017.3
20260510055117 14 139 0.0 0.0 0.08 0.43 0.41 92 1017.4
20260510054617 14 139 0.0 0.0 0.05 0.41 0.38 92 1017.5
20260510054117 14 139 0.0 0.0 0.05 0.38 0.36 92 1017.4
20260510053616 14 139 0.0 0.0 0.05 0.38 0.36 92 1017.6
20260510051109 14 138 0.0 0.0 0.03 0.33 0.33 92 1017.6
20260510050605 14 138 0.0 0.0 0.05 0.33 0.33 92 1017.7
20260510045600 14 138 0.0 0.0 0.05 0.33 0.33 92 1017.6
20260510045058 14 189 0.0 0.0 0.08 0.33 0.33 92 1017.5
20260510044557 14 189 0.0 0.0 0.08 0.33 0.33 91 1017.5
20260510043550 14 189 0.0 0.0 0.13 0.33 0.33 91 1017.4
20260510042541 14 189 0.0 1.6 0.15 0.33 0.33 91 1017.3
20260510042045 14 238 0.0 0.0 0.15 0.33 0.33 91 1017.4
20260510041526 14 238 0.0 0.0 0.18 0.33 0.30 91 1017.4
20260510041028 14 238 0.0 0.0 0.20 0.33 0.30 91 1017.3
20260510040526 14 212 0.0 0.0 0.20 0.30 0.28 90 1017.4
20260510040027 14 212 0.0 0.0 0.23 0.30 0.28 91 1017.4
20260510035526 14 212 0.0 0.0 0.23 0.28 0.25 90 1017.7
20260510035026 14 212 0.0 0.0 0.23 0.25 0.23 90 1017.7
20260510034526 14 191 0.0 0.0 0.23 0.25 0.23 90 1017.8
20260510034026 14 191 0.0 0.0 0.23 0.23 0.23 89 1017.8
20260510033526 14 191 0.0 4.8 0.20 0.23 0.20 89 1017.8
20260510032524 15 285 0.0 4.8 0.15 0.18 0.18 89 1017.6
20260510032025 15 134 0.0 4.8 0.15 0.15 0.15 88 1017.4
20260510031525 15 105 0.0 1.6 0.13 0.15 0.15 88 1017.7
20260510031026 15 297 0.0 8.0 0.10 0.13 0.13 88 1018.2
20260510030525 15 295 3.2 14.5 0.08 0.10 0.08 87 1018.4
20260510030025 15 267 6.4 16.1 0.05 0.08 0.05 86 1018.4
20260510025524 15 278 4.8 16.1 0.05 0.05 0.05 86 1018.3
20260510025027 15 288 4.8 19.3 0.03 0.05 0.03 85 1018.4
20260510024524 15 304 4.8 20.9 0.00 0.03 0.00 86 1018.5
20260510024022 15 293 3.2 20.9 0.00 0.03 0.00 88 1018.7
20260510023522 14 277 1.6 9.7 0.00 0.03 0.00 91 1018.6
20260510022520 14 273 0.0 4.8 0.00 0.03 0.00 91 1018.6
20260510022020 14 276 0.0 4.8 0.00 0.03 0.00 91 1018.6
20260510021521 14 295 0.0 3.2 0.00 0.03 0.00 91 1018.5
20260510021020 14 307 0.0 6.4 0.00 0.03 0.00 91 1018.5
20260510020521 14 278 0.0 6.4 0.00 0.03 0.00 91 1018.4
20260510020019 14 212 0.0 1.6 0.00 0.03 0.00 91 1018.4
20260510015018 14 276 0.0 6.4 0.00 0.03 0.00 91 1018.2
20260510014512 14 271 0.0 0.0 0.00 0.03 0.00 91 1018.3
20260510014010 14 271 0.0 3.2 0.00 0.03 0.00 91 1018.0
20260510013510 14 271 0.0 3.2 0.00 0.03 0.00 91 1017.9
20260510013010 14 271 0.0 0.0 0.00 0.03 0.00 91 1017.9
20260510012007 14 271 0.0 0.0 0.00 0.03 0.00 91 1017.7
20260510011507 14 271 0.0 0.0 0.00 0.03 0.00 91 1017.8
20260510010506 14 271 0.0 0.0 0.00 0.03 0.00 91 1017.8
20260510010005 14 271 0.0 0.0 0.00 0.03 0.00 91 1017.9
20260510005504 14 271 0.0 0.0 0.00 0.03 0.00 91 1017.8
20260510004501 14 271 0.0 0.0 0.00 0.03 0.00 90 1017.7
20260510004002 14 271 0.0 4.8 0.00 0.03 0.00 90 1017.8
20260510003500 14 271 0.0 4.8 0.00 0.03 0.00 90 1017.8
20260510003000 14 264 0.0 1.6 0.00 0.03 0.00 90 1017.8
20260510002459 15 277 0.0 0.0 0.00 0.03 0.00 90 1017.8
20260510001956 15 277 0.0 0.0 0.00 0.03 0.00 89 1017.7
20260510001456 15 277 0.0 0.0 0.00 0.03 0.00 90 1017.7
20260510000456 15 277 0.0 0.0 0.00 0.03 0.00 89 1017.8
20260509235956 15 277 0.0 0.0 0.00 0.03 0.00 89 1017.9
20260509235455 15 277 0.0 0.0 0.00 0.03 0.00 89 1017.9
20260509234952 15 277 0.0 0.0 0.00 0.03 0.00 89 1018.1
20260509233948 15 277 0.0 0.0 0.00 0.03 0.00 89 1018.3
20260509233448 15 278 0.0 0.0 0.00 0.03 0.00 89 1018.3
20260509232445 15 278 0.0 0.0 0.00 0.03 0.00 89 1018.5
20260509231942 15 278 0.0 0.0 0.00 0.03 0.00 89 1018.5
20260509230942 15 278 0.0 0.0 0.00 0.03 0.00 88 1018.6
20260509230441 15 277 0.0 3.2 0.00 0.03 0.00 88 1018.6
20260509225938 15 277 0.0 4.8 0.00 0.03 0.00 88 1018.5
20260509225438 15 288 0.0 4.8 0.00 0.03 0.00 88 1018.5
20260509224939 16 276 0.0 0.0 0.00 0.03 0.00 88 1018.6
20260509224438 16 276 0.0 0.0 0.00 0.03 0.00 88 1018.6
20260509223438 16 275 0.0 0.0 0.00 0.03 0.00 88 1018.4
20260509222434 16 275 0.0 4.8 0.00 0.03 0.00 88 1018.2
20260509221934 16 275 0.0 4.8 0.00 0.03 0.00 87 1018.2
20260509221434 16 288 0.0 4.8 0.00 0.03 0.00 87 1018.3
20260509220938 16 220 0.0 1.6 0.00 0.03 0.00 87 1018.2
20260509220432 16 186 0.0 0.0 0.00 0.03 0.00 87 1018.1
20260509215932 16 182 0.0 0.0 0.00 0.03 0.03 87 1018.1
20260509215428 16 182 0.0 0.0 0.00 0.03 0.03 86 1018.0
20260509214929 16 182 0.0 0.0 0.00 0.03 0.03 86 1018.1
20260509214429 16 182 0.0 0.0 0.00 0.03 0.03 86 1018.0
20260509213427 16 182 0.0 0.0 0.00 0.03 0.03 87 1017.9
20260509212924 16 182 0.0 0.0 0.00 0.03 0.03 87 1017.9
20260509212424 16 182 0.0 0.0 0.00 0.03 0.03 86 1017.9
20260509211924 16 182 0.0 3.2 0.00 0.03 0.03 86 1017.7
20260509211425 16 181 0.0 3.2 0.00 0.03 0.03 86 1017.9
20260509210424 16 272 0.0 0.0 0.00 0.03 0.03 86 1018.0
20260509205924 16 272 0.0 0.0 0.00 0.03 0.03 85 1018.2
20260509204922 16 278 0.0 3.2 0.00 0.03 0.03 85 1018.1
20260509204422 16 278 0.0 3.2 0.00 0.03 0.03 85 1018.0
20260509203420 16 279 0.0 0.0 0.00 0.03 0.03 85 1018.1
20260509202920 16 280 0.0 3.2 0.00 0.03 0.03 85 1018.2
20260509201919 16 273 0.0 0.0 0.00 0.03 0.03 84 1018.3
20260509201419 17 271 1.6 6.4 0.00 0.03 0.03 84 1018.5
20260509200917 17 274 1.6 6.4 0.00 0.03 0.03 83 1018.4
20260509200416 17 278 1.6 6.4 0.00 0.03 0.03 82 1018.4
20260509195417 17 274 0.0 0.0 0.00 0.03 0.03 81 1018.4
20260509194916 17 275 0.0 0.0 0.00 0.03 0.03 81 1018.3
20260509193913 18 276 0.0 3.2 0.00 0.03 0.03 80 1018.3
20260509193410 18 280 0.0 4.8 0.00 0.03 0.03 80 1018.2
20260509192908 18 280 0.0 4.8 0.00 0.03 0.03 80 1018.2
20260509192409 18 274 0.0 0.0 0.00 0.03 0.03 80 1018.1
20260509191902 18 274 0.0 3.2 0.00 0.03 0.03 80 1018.0
20260509191358 18 275 0.0 3.2 0.00 0.03 0.03 80 1017.9
20260509190850 18 278 0.0 0.0 0.00 0.03 0.03 79 1017.9
20260509190344 18 278 0.0 0.0 0.00 0.03 0.03 79 1017.8
20260509185838 18 271 0.0 6.4 0.00 0.03 0.03 80 1017.8
20260509185334 18 257 0.0 6.4 0.00 0.03 0.03 80 1017.7
20260509184322 19 229 0.0 1.6 0.00 0.03 0.03 80 1017.6
20260509183814 19 101 0.0 0.0 0.00 0.03 0.03 79 1017.4
20260509183314 19 93 0.0 3.2 0.00 0.03 0.03 78 1017.4
20260509182812 20 92 0.0 3.2 0.00 0.03 0.03 76 1017.2
20260509182312 20 91 0.0 0.0 0.00 0.03 0.03 76 1017.1
20260509181812 20 91 0.0 0.0 0.00 0.03 0.03 76 1017.0
20260509181313 20 91 0.0 0.0 0.00 0.03 0.03 75 1016.8
20260509180825 20 91 0.0 0.0 0.00 0.03 0.03 74 1017.1
20260509180326 20 91 0.0 0.0 0.00 0.03 0.03 73 1017.1
20260509175810 21 91 0.0 0.0 0.00 0.03 0.03 73 1016.9
20260509174808 21 95 0.0 0.0 0.00 0.03 0.03 71 1017.0
20260509174307 22 98 0.0 0.0 0.00 0.03 0.03 69 1017.1
20260509173808 22 98 0.0 0.0 0.00 0.03 0.03 68 1017.0
20260509173311 22 103 0.0 0.0 0.00 0.03 0.03 67 1017.1
20260509172306 22 103 0.0 0.0 0.00 0.03 0.03 63 1017.2
20260509171804 22 103 0.0 0.0 0.00 0.03 0.03 63 1017.3
20260509170304 23 108 0.0 0.0 0.00 0.03 0.03 64 1017.3
20260509165804 23 108 0.0 0.0 0.00 0.05 0.03 64 1017.3
20260509165306 23 108 0.0 0.0 0.00 0.05 0.03 64 1017.2
20260509164806 23 108 0.0 0.0 0.00 0.05 0.03 61 1017.2
20260509164304 23 108 0.0 0.0 0.00 0.08 0.03 62 1017.1
20260509163804 23 108 0.0 0.0 0.00 0.10 0.03 61 1017.2
20260509163302 23 108 0.0 0.0 0.00 0.13 0.03 60 1017.2
20260509162800 24 108 0.0 0.0 0.00 0.13 0.03 57 1017.2
20260509162300 24 108 0.0 0.0 0.00 0.15 0.03 56 1017.2
20260509161802 24 108 0.0 0.0 0.00 0.15 0.03 55 1017.2
20260509161301 24 108 0.0 0.0 0.00 0.18 0.03 55 1017.2
20260509160802 24 108 0.0 6.4 0.00 0.20 0.03 52 1017.3
20260509160302 24 107 0.0 6.4 0.00 0.23 0.03 50 1017.3
20260509155800 24 126 0.0 3.2 0.00 0.23 0.03 52 1017.3
20260509154757 24 129 0.0 3.2 0.00 0.30 0.03 50 1017.3
20260509154257 24 129 0.0 3.2 0.00 0.33 0.03 49 1017.2
20260509153756 24 162 0.0 1.6 0.00 0.33 0.03 49 1017.4
20260509153256 25 162 0.0 1.6 0.00 0.36 0.03 48 1017.4
20260509152756 25 164 0.0 0.0 0.00 0.43 0.03 48 1017.4
20260509152257 25 167 0.0 4.8 0.00 0.48 0.03 47 1017.5
20260509151757 25 167 0.0 4.8 0.00 0.56 0.03 47 1017.5
20260509151255 25 96 0.0 0.0 0.00 0.64 0.03 48 1017.8
20260509150758 25 91 0.0 1.6 0.00 0.71 0.03 49 1017.9
20260509145755 25 91 0.0 4.8 0.00 0.84 0.03 49 1018.1
20260509145254 25 88 0.0 6.4 0.00 0.89 0.03 48 1018.1
20260509144250 25 136 1.6 9.7 0.00 1.02 0.03 45 1018.2
20260509143750 25 218 1.6 9.7 0.00 1.09 0.03 46 1018.2
20260509143250 25 183 1.6 9.7 0.00 1.14 0.03 45 1018.3
20260509142750 25 244 1.6 8.0 0.00 1.17 0.03 44 1018.4
20260509142249 25 176 1.6 8.0 0.00 1.22 0.03 44 1018.4
20260509141747 25 217 1.6 11.3 0.00 1.27 0.03 44 1018.4
20260509141246 25 289 1.6 11.3 0.00 1.30 0.03 44 1018.4
20260509140746 25 280 3.2 12.9 0.00 1.32 0.03 44 1018.4
20260509140244 25 274 4.8 12.9 0.00 1.32 0.03 46 1018.5
20260509135741 25 283 4.8 16.1 0.00 1.32 0.03 47 1018.5
20260509135242 25 283 4.8 16.1 0.00 1.32 0.03 48 1018.5
20260509134745 25 278 3.2 16.1 0.00 1.32 0.03 50 1018.7
20260509134237 25 146 1.6 11.3 0.00 1.32 0.03 52 1018.8
20260509133729 25 278 0.0 3.2 0.00 1.32 0.03 53 1018.9
20260509132717 25 356 1.6 8.0 0.00 1.32 0.03 52 1018.9
20260509132211 25 328 1.6 8.0 0.00 1.32 0.03 52 1019.0
20260509131705 25 314 1.6 11.3 0.00 1.32 0.03 53 1018.9
20260509131159 25 352 1.6 11.3 0.00 1.32 0.03 53 1019.0
20260509130657 25 200 0.0 4.8 0.00 1.32 0.03 52 1018.9
20260509130201 25 174 0.0 8.0 0.00 1.32 0.03 52 1019.0
20260509125654 25 195 0.0 8.0 0.00 1.32 0.03 52 1019.0
20260509125153 25 206 0.0 4.8 0.00 1.32 0.03 51 1018.9
20260509124653 25 260 0.0 0.0 0.00 1.32 0.03 52 1019.0